Location: Gleizolles
(44.4833°N, 6.7667°E)
Time: 09:54:08
(UTC+00:00)

USA 234 - Pass Details

Date: 09 April 2020
Orbit: 1102 x 1106 km, 123.0° (Epoch: 14 May)

Event Time Altitude Azimuth Distance (km) Brightness Sun altitude
Rises 19:51:59 0° 54° (NE) 3,925 5.9 -17.6°
Reaches altitude 10° 19:54:41 10° 62° (ENE) 2,965 5.2 -18.0°
Maximum altitude 20:00:45 39° 130° (SE) 1,588 3.6 -18.9°
Drops below altitude 10° 20:06:46 10° 197° (SSW) 2,953 5.3 -19.8°
Sets 20:09:26 0° 205° (SSW) 3,909 6.1 -20.2°
